Location: Unspecified
(48.8656°N, 0.0000°E)
Time: 23:14:47
(UTC+00:00)

Vanguard 1 - Pass Details

Date: 22 June 2019
Orbit: 653 x 3830 km, 34.3° (Epoch: 12 October)

Event Time Altitude Azimuth Distance (km) Brightness Sun altitude
Rises 01:00:21 0° 208° (SSW) 7,844 - -16.5°
Reaches altitude 10° 01:07:37 10° 198° (SSW) 6,529 - -16.2°
Exits shadow 01:13:03 17° 185° (S) 5,577 13.2 -16.0°
Maximum altitude 01:21:24 24° 154° (SSE) 4,461 13.0 -15.5°
Drops below altitude 10° 01:31:08 10° 107° (ESE) 4,545 13.5 -15.0°
Sets 01:34:56 0° 94° (E) 5,098 14.0 -14.8°
